West Lebanon, NH

12:34 PM EST on January 24, 2017 (GMT -0500)
Lebanon Municipal

Weather History for KLEB - May, 2013

Change the Weather History Date:

Sunday, May 26, 2013

  Actual Average Record
Temperature  
Mean Temperature 45 °F -  
Max Temperature 53 °F 69 °F 89 °F (2015)
Min Temperature 37 °F 46 °F 29 °F (1956)
Degree Days  
Heating Degree Days 20    
Moisture  
Dew Point 37 °F    
Average Humidity 77    
Maximum Humidity 97    
Minimum Humidity 55    
Precipitation  
Precipitation 0.03 in - - ()
Sea Level Pressure  
Sea Level Pressure 29.89 in    
Wind  
Wind Speed 8 mph (NNW)    
Max Wind Speed 17 mph    
Max Gust Speed 30 mph    
Visibility 10 miles    
Events Rain    
Averages and records for this station are not official NWS values.
T = Trace of Precipitation, MM = Missing Value Source: NWS Daily Summary

Daily Weather History Graph

Daily Weather History Graph

Search for Another Location

Airport or City:

Trip Planner

Search our weather history database for the weather conditions in past years. The results will help you decide how hot, cold, wet, or windy it might be!

Date:

Astronomy

May. 26, 2013 Rise Set
Actual Time 5:14 AM EDT 8:18 PM EDT
Civil Twilight 4:39 AM EDT 8:53 PM EDT
Nautical Twilight 3:55 AM EDT 9:37 PM EDT
Astronomical Twilight 3:03 AM EDT 10:30 PM EDT
Moon 10:02 PM EDT (5/26) 6:40 AM EDT (5/26)
Length of Visible Light 16h 13m
Length of Day
15h 04m
Waning Gibbous, 97% of the Moon is Illuminated
May 26
Waning Gibbous
May 31
Last Quarter
Jun 8
New
Jun 16
First Quarter
Jun 23
Full

Hourly Weather History & Observations

Time (EDT) Temp. Windchill Dew Point Humidity Pressure Visibility Wind Dir Wind Speed Gust Speed Precip Events Conditions
12:53 AM 37.9 °F 32.1 °F 35.1 °F 89% 29.82 in 10.0 mi North 8.1 mph - 0.01 in   Overcast
1:20 AM 37.4 °F 32.1 °F 35.6 °F 93% 29.80 in 10.0 mi NNW 6.9 mph - 0.01 in Rain Light Rain
1:53 AM 37.9 °F 32.7 °F 36.0 °F 93% 29.80 in 10.0 mi North 6.9 mph - 0.02 in   Overcast
2:29 AM 39.2 °F 35.0 °F 35.6 °F 87% 29.78 in 10.0 mi North 5.8 mph - 0.00 in   Overcast
2:53 AM 39.0 °F 33.4 °F 36.0 °F 89% 29.79 in 10.0 mi North 8.1 mph - 0.00 in   Overcast
3:53 AM 39.9 °F 35.8 °F 36.0 °F 86% 29.78 in 10.0 mi Variable 5.8 mph - 0.00 in   Overcast
4:05 AM 39.2 °F 35.0 °F 35.6 °F 87% 29.77 in 10.0 mi North 5.8 mph - N/A   Overcast
4:18 AM 39.2 °F 35.9 °F 37.4 °F 93% 29.78 in 10.0 mi NNE 4.6 mph - N/A   Overcast
4:53 AM 41.0 °F 38.0 °F 37.0 °F 86% 29.80 in 10.0 mi North 4.6 mph - N/A   Overcast
5:00 AM 41.0 °F 35.2 °F 37.4 °F 87% 29.79 in 10.0 mi NNW 9.2 mph - N/A   Overcast
5:53 AM 41.0 °F 36.4 °F 37.0 °F 86% 29.81 in 10.0 mi NNW 6.9 mph - N/A   Overcast
6:39 AM 42.8 °F 39.3 °F 37.4 °F 81% 29.81 in 10.0 mi NNW 5.8 mph - N/A   Overcast
6:53 AM 42.1 °F 38.4 °F 37.9 °F 85% 29.83 in 10.0 mi NW 5.8 mph - N/A   Overcast
7:53 AM 44.1 °F 39.5 °F 39.0 °F 82% 29.84 in 10.0 mi NNW 8.1 mph - N/A   Overcast
8:53 AM 46.0 °F 39.9 °F 37.0 °F 71% 29.85 in 10.0 mi NNW 13.8 mph 21.9 mph N/A   Overcast
9:00 AM 46.4 °F 41.5 °F 37.4 °F 71% 29.84 in 10.0 mi North 10.4 mph 21.9 mph N/A   Overcast
9:53 AM 48.9 °F - 37.9 °F 66% 29.86 in 10.0 mi NW 17.3 mph 21.9 mph N/A   Overcast
10:53 AM 48.9 °F - 37.9 °F 66% 29.87 in 10.0 mi NW 13.8 mph 24.2 mph 0.00 in Rain Light Rain
11:53 AM 50.0 °F - 37.0 °F 61% 29.88 in 10.0 mi NW 13.8 mph 23.0 mph 0.00 in   Overcast
12:53 PM 50.0 °F - 37.0 °F 61% 29.90 in 10.0 mi NW 13.8 mph 23.0 mph N/A   Overcast
1:53 PM 51.1 °F - 37.0 °F 59% 29.92 in 10.0 mi North 11.5 mph 20.7 mph N/A   Overcast
2:53 PM 52.0 °F - 37.0 °F 57% 29.93 in 10.0 mi NW 17.3 mph 25.3 mph N/A   Overcast
3:53 PM 53.1 °F - 37.0 °F 55% 29.95 in 10.0 mi NNW 16.1 mph 29.9 mph N/A   Overcast
4:53 PM 52.0 °F - 37.9 °F 59% 29.98 in 10.0 mi North 10.4 mph 20.7 mph N/A   Overcast
5:53 PM 51.1 °F - 37.9 °F 61% 30.01 in 10.0 mi North 13.8 mph 21.9 mph N/A   Overcast
6:53 PM 50.0 °F - 39.0 °F 66% 30.04 in 10.0 mi North 11.5 mph 19.6 mph N/A   Overcast
7:53 PM 50.0 °F - 37.9 °F 63% 30.05 in 10.0 mi NNW 5.8 mph - N/A   Overcast
8:53 PM 48.0 °F - 37.9 °F 68% 30.06 in 10.0 mi NNW 4.6 mph - N/A   Overcast
9:53 PM 42.1 °F - 37.9 °F 85% 30.08 in 10.0 mi Calm Calm - N/A   Clear
10:53 PM 39.0 °F - 37.0 °F 93% 30.08 in 10.0 mi Calm Calm - N/A   Clear
11:53 PM 37.9 °F - 37.0 °F 97% 30.09 in 10.0 mi Calm Calm - N/A   Clear